User: anonymous   Login
Location: Parc des �les de St-Timoth�e
(45.2924°N, 74.0481°W)
Time: 20:11:54
(UTC-04:00)
Language:

Cosmos 2173 Rocket - Orbit

View from above orbital plane
View from above orbital plane
View from above satellite
View from above satellite

Ground track
Ground track

The orbit data is extracted from the following two-line orbital elements,

1 21797U 91081B   15123.53273557  .00000104  00000-0  88388-4 0  9998
2 21797 082.9520 278.1626 0039378 101.3737 323.5809 13.77328912177624
Epoch (UTC): 03 May 2015 12:47:08
Eccentricity: 0.0039378
inclination: 82.9520°
perigee height: 944 km
apogee height: 1002 km
right ascension of ascending node: 278.1626°
argument of perigee: 101.3737°
revolutions per day: 13.77328912
mean anomaly at epoch: 323.5809°
orbit number at epoch: 17762

The dashed part of the orbit path shows where the satellite is in the earth's shadow,  

DLR